Location: Maccacari
(45.1333°N, 11.1333°E)
Time: 21:58:50
(UTC+00:00)

Tiros 1 despin weight - Pass Details

Date: 30 January 2021
Orbit: 593 x 642 km, 48.2° (Epoch: 08 March)

Event Time Altitude Azimuth Distance (km) Brightness Sun altitude
Rises 16:52:53 0° 290° (WNW) 2,872 ? -6.2°
Reaches altitude 10° 16:55:18 10° 283° (WNW) 1,957 ? -6.6°
Maximum altitude 16:59:30 40° 214° (SSW) 885 ? -7.3°
Drops below altitude 10° 17:03:38 10° 144° (SE) 1,925 ? -8.0°
Sets 17:06:00 0° 137° (SE) 2,820 ? -8.4°
